Weather History for KAZO - November, 2011

Change the Weather History Date:

Friday, November 4, 2011

  Actual Average Record
Temperature  
Mean Temperature 43 °F 45 °F  
Max Temperature 54 °F 53 °F 77 °F (1987)
Min Temperature 31 °F 37 °F 19 °F (1951)
Degree Days  
Heating Degree Days 22 20  
Month to date heating degree days 78  
Since 1 July heating degree days 670  
Cooling Degree Days 0 0  
Month to date cooling degree days 0  
Year to date cooling degree days 675  
Moisture  
Dew Point 30 °F    
Average Humidity 66    
Maximum Humidity 86    
Minimum Humidity 37    
Precipitation  
Precipitation 0.00 in 0.11 in 2.61 in (1990)
Month to date precipitation T 0.43  
Year to date precipitation 31.17  
Sea Level Pressure  
Sea Level Pressure 30.30 in    
Wind  
Wind Speed 5 mph (NE)    
Max Wind Speed 10 mph    
Max Gust Speed 16 mph    
Visibility 9 miles    
Events      
T = Trace of Precipitation, MM = Missing Value Source: NWS Daily Summary

Daily Weather History Graph

Daily Weather History Graph

Search for Another Location

Airport or City:

Trip Planner

Search our weather history database for the weather conditions in past years. The results will help you decide how hot, cold, wet, or windy it might be!

Date:

Astronomy

Nov. 04, 2011 Rise Set
Actual Time 8:18 AM EDT 6:32 PM EDT
Civil Twilight 7:49 AM EDT 7:01 PM EDT
Nautical Twilight 7:16 AM EDT 7:34 PM EDT
Astronomical Twilight 6:43 AM EDT 8:07 PM EDT
Moon 3:29 PM EDT (11/4) 2:23 AM EDT (11/4)
Length of Visible Light 11h 12m
Length of Day
10h 13m
Waxing Gibbous, 69% of the Moon is Illuminated
Nov 4
Waxing Gibbous
Nov 10
Full
Nov 18
Last Quarter
Nov 25
New
Dec 2
First Quarter

Hourly Weather History & Observations

Time (EDT) Temp. Windchill Dew Point Humidity Pressure Visibility Wind Dir Wind Speed Gust Speed Precip Events Conditions
12:53 AM 41.0 °F 37.1 °F 33.1 °F 73% 30.19 in 10.0 mi Variable 5.8 mph - N/A   Clear
1:53 AM 39.0 °F 36.8 °F 33.1 °F 79% 30.20 in 10.0 mi NNE 3.5 mph - N/A   Clear
2:53 AM 36.0 °F 32.1 °F 32.0 °F 86% 30.21 in 10.0 mi North 4.6 mph - N/A   Clear
3:53 AM 36.0 °F 31.1 °F 32.0 °F 86% 30.22 in 9.0 mi North 5.8 mph - N/A   Clear
4:53 AM 35.1 °F 30.1 °F 28.9 °F 78% 30.24 in 10.0 mi NNE 5.8 mph - N/A   Clear
5:53 AM 34.0 °F 31.0 °F 28.9 °F 82% 30.25 in 10.0 mi NNE 3.5 mph - N/A   Clear
6:53 AM 33.1 °F 30.0 °F 28.9 °F 85% 30.27 in 9.0 mi NNE 3.5 mph - N/A   Clear
7:53 AM 33.1 °F - 28.0 °F 82% 30.28 in 9.0 mi Calm Calm - N/A   Clear
8:53 AM 33.1 °F 27.7 °F 28.0 °F 82% 30.31 in 6.0 mi North 5.8 mph - N/A   Haze
9:53 AM 37.9 °F 32.7 °F 32.0 °F 79% 30.32 in 8.0 mi NE 6.9 mph - N/A   Clear
10:53 AM 42.1 °F 36.1 °F 34.0 °F 73% 30.34 in 9.0 mi ENE 10.4 mph - N/A   Clear
11:53 AM 46.9 °F - 34.0 °F 61% 30.35 in 10.0 mi East 9.2 mph - N/A   Clear
12:53 PM 48.9 °F - 32.0 °F 52% 30.35 in 10.0 mi NE 6.9 mph - N/A   Clear
1:53 PM 51.1 °F - 28.9 °F 43% 30.34 in 10.0 mi East 5.8 mph - N/A   Clear
2:53 PM 53.1 °F - 28.0 °F 38% 30.32 in 10.0 mi ENE 6.9 mph - N/A   Clear
3:53 PM 53.1 °F - 27.0 °F 37% 30.31 in 10.0 mi NE 5.8 mph - N/A   Clear
4:53 PM 53.6 °F - 28.4 °F 38% 30.29 in 10.0 mi North 3.5 mph - N/A   Clear
5:53 PM 51.1 °F - 30.0 °F 44% 30.32 in 10.0 mi ENE 3.5 mph - N/A   Clear
6:53 PM 48.0 °F - 30.0 °F 50% 30.32 in 9.0 mi Calm Calm - N/A   Clear
7:53 PM 44.6 °F 43.1 °F 30.2 °F 57% 30.31 in 10.0 mi ENE 3.5 mph - N/A   Clear
8:53 PM 43.0 °F 41.3 °F 30.0 °F 60% 30.34 in 10.0 mi NE 3.5 mph - N/A   Clear
9:53 PM 39.9 °F - 30.0 °F 68% 30.34 in 9.0 mi Calm Calm - N/A   Clear
10:53 PM 37.0 °F - 28.9 °F 73% 30.35 in 9.0 mi Calm Calm - N/A   Clear
11:53 PM 34.0 °F 31.0 °F 28.0 °F 79% 30.34 in 8.0 mi East 3.5 mph - N/A   Clear